Location: ???????
(55.8930°N, 38.0586°E)
Time: 07:40:29
(UTC+00:00)

Envisat - Visible Passes

Search period start: 20 July 2024 00:00
Search period end: 30 July 2024 00:00
Orbit: 762 x 764 km, 98.3° (Epoch: 19 July)

Date Brightness Start Highest point End Pass type
(mag) Time Alt. Az. Time Alt. Az. Time Alt. Az.
20 Jul 4.6 00:01:44 10° NNE 00:06:16 31° E 00:10:45 10° SSE visible
20 Jul 5.4 23:25:07 10° NE 23:28:25 17° E 23:31:42 10° SE visible
22 Jul 4.9 23:48:43 10° NE 23:52:56 25° E 23:57:06 10° SSE visible
23 Jul 5.5 23:12:28 10° NE 23:15:00 14° E 23:17:32 10° ESE visible
25 Jul 4.3 00:12:37 10° NNE 00:17:21 37° E 00:22:03 10° SSE visible
25 Jul 5.2 23:35:47 10° NE 23:39:34 21° E 23:43:20 10° SE visible
26 Jul 5.7 23:00:22 10° ENE 23:01:34 11° E 23:02:46 10° E visible
27 Jul 4.7 23:59:33 10° NNE 00:04:02 30° E 00:08:29 10° SSE visible
28 Jul 5.4 23:22:57 10° NE 23:26:10 17° E 23:29:23 10° SE visible
